K9BM Weather Reports


time (UTC)temp
C
wind
direction
speed
KPH
gust
KPH
rain 1hr
cm
rain 24hr
cm
rain mn
cm
humidity
%
barometer
mb
20260904135506 13 174 0.0 4.8 0.00 0.00 0.00 48 1001.3
20260904135005 13 174 0.0 4.8 0.00 0.00 0.00 49 1001.2
20260904134505 13 174 1.6 11.3 0.00 0.00 0.00 48 1001.0
20260904134006 13 174 1.6 11.3 0.00 0.00 0.00 49 1001.0
20260904133505 13 191 3.2 11.3 0.00 0.00 0.00 49 1001.0
20260904133006 13 197 4.8 9.7 0.00 0.00 0.00 51 1001.0
20260904132505 12 197 4.8 9.7 0.00 0.00 0.00 50 1001.0
20260904132006 12 197 8.0 11.3 0.00 0.00 0.00 50 1001.0
20260904131505 12 198 8.0 11.3 0.00 0.00 0.00 50 1000.9
20260904131005 12 201 3.2 9.7 0.00 0.00 0.00 51 1000.7
20260904130006 12 235 1.6 8.0 0.00 0.00 0.00 50 1000.7
20260904125505 12 235 4.8 8.0 0.00 0.00 0.00 50 1000.5
20260904125006 12 242 3.2 11.3 0.00 0.00 0.00 50 1000.4
20260904124005 12 245 9.7 12.9 0.00 0.00 0.00 49 1000.6
20260904123506 12 223 4.8 8.0 0.00 0.00 0.00 47 1000.4
20260904123006 13 142 0.0 0.0 0.00 0.00 0.00 46 1000.3
20260904122506 13 137 0.0 0.0 0.00 0.00 0.00 46 1000.3
20260904122006 13 95 0.0 0.0 0.00 0.00 0.00 44 1000.3
20260904121505 13 95 0.0 0.0 0.00 0.00 0.00 44 1000.4
20260904121006 13 94 0.0 0.0 0.00 0.00 0.00 44 1000.4
20260904120005 13 77 0.0 0.0 0.00 0.00 0.00 43 1000.3
20260904115505 14 77 0.0 0.0 0.00 0.00 0.00 42 1000.4
20260904115005 14 76 0.0 0.0 0.00 0.00 0.00 41 1000.4
20260904114505 15 76 0.0 0.0 0.00 0.00 0.00 40 1000.5
20260904113506 15 75 0.0 0.0 0.00 0.00 0.00 39 1000.2
20260904112505 15 75 0.0 0.0 0.00 0.00 0.00 39 1000.1
20260904111505 15 75 0.0 8.0 0.00 0.00 0.00 39 1000.1
20260904111005 16 76 1.6 8.0 0.00 0.00 0.00 39 1000.1
20260904110005 16 82 4.8 8.0 0.00 0.00 0.00 38 1000.1
20260904105505 16 80 4.8 9.7 0.00 0.00 0.00 38 1000.1
20260904105005 16 75 4.8 9.7 0.00 0.00 0.00 38 1000.2
20260904104505 16 57 6.4 9.7 0.00 0.00 0.00 39 1000.2
20260904104006 15 63 3.2 8.0 0.00 0.00 0.00 40 1000.2
20260904103005 15 67 3.2 8.0 0.00 0.00 0.00 41 1000.3
20260904102505 14 55 4.8 8.0 0.00 0.00 0.00 42 1000.3
20260904102005 15 39 4.8 8.0 0.00 0.00 0.00 42 1000.3
20260904101506 15 32 4.8 8.0 0.00 0.00 0.00 42 1000.4
20260904101005 15 44 4.8 8.0 0.00 0.00 0.00 41 1000.5
20260904100005 15 56 3.2 4.8 0.00 0.00 0.00 40 1000.4
20260904095005 16 58 3.2 8.0 0.00 0.00 0.00 39 1000.4
20260904094505 16 59 4.8 9.7 0.00 0.00 0.00 39 1000.4
20260904094005 16 54 8.0 11.3 0.00 0.00 0.00 38 1000.4
20260904093505 16 57 4.8 12.9 0.00 0.00 0.00 38 1000.4
20260904093006 16 53 8.0 14.5 0.00 0.00 0.00 38 1000.4
20260904091505 16 71 3.2 12.9 0.00 0.00 0.00 38 1000.7
20260904091005 16 63 4.8 12.9 0.00 0.00 0.00 38 1000.7
20260904090005 16 81 8.0 14.5 0.00 0.00 0.00 38 1000.7
20260904085505 16 69 9.7 14.5 0.00 0.00 0.00 38 1000.6
20260904085005 16 69 4.8 14.5 0.00 0.00 0.00 39 1000.8
20260904084505 16 79 6.4 9.7 0.00 0.00 0.00 40 1001.0
20260904084005 16 43 1.6 11.3 0.00 0.00 0.00 40 1001.1
20260904083506 16 41 8.0 11.3 0.00 0.00 0.00 39 1001.2
20260904082006 17 40 4.8 8.0 0.00 0.00 0.00 38 1001.4
20260904081505 17 30 4.8 8.0 0.00 0.00 0.00 37 1001.5
20260904081005 17 93 3.2 11.3 0.00 0.00 0.00 34 1001.5
20260904080005 17 108 4.8 9.7 0.00 0.00 0.00 34 1001.4
20260904075505 17 116 4.8 9.7 0.00 0.00 0.00 33 1001.5
20260904075005 17 116 6.4 11.3 0.00 0.00 0.00 33 1001.6
20260904074505 18 116 8.0 12.9 0.00 0.00 0.00 33 1001.6
20260904073506 18 117 11.3 14.5 0.00 0.00 0.00 32 1001.6
20260904073006 18 115 9.7 16.1 0.00 0.00 0.00 32 1001.5
20260904072006 18 115 12.9 16.1 0.00 0.00 0.00 32 1001.6
20260904071506 18 111 11.3 19.3 0.00 0.00 0.00 32 1001.7
20260904071006 18 109 14.5 19.3 0.00 0.00 0.00 32 1001.6
20260904070005 18 98 12.9 19.3 0.00 0.00 0.00 32 1001.7
20260904065505 18 103 14.5 20.9 0.00 0.00 0.00 32 1001.7
20260904065006 18 104 14.5 22.5 0.00 0.00 0.00 32 1001.7
20260904064505 18 97 16.1 24.1 0.00 0.00 0.00 32 1001.7
20260904064005 18 98 19.3 24.1 0.00 0.00 0.00 32 1001.7
20260904063506 18 101 19.3 24.1 0.00 0.00 0.00 32 1001.8
20260904063005 19 102 16.1 27.4 0.00 0.00 0.00 32 1001.6
20260904062505 19 111 20.9 27.4 0.00 0.00 0.00 32 1001.7
20260904062005 18 101 17.7 24.1 0.00 0.00 0.00 32 1001.6
20260904061505 18 100 16.1 20.9 0.00 0.00 0.00 32 1001.5
20260904061005 18 94 16.1 22.5 0.00 0.00 0.00 32 1001.7
20260904055005 18 100 9.7 11.3 0.00 0.00 0.00 35 1001.8
20260904054505 18 159 8.0 8.0 0.00 0.00 0.00 33 1001.9
20260904054005 18 160 3.2 11.3 0.00 0.00 0.00 34 1002.0
20260904053505 18 160 3.2 11.3 0.00 0.00 0.00 34 1002.1
20260904053006 18 159 6.4 11.3 0.00 0.00 0.00 34 1002.2
20260904052505 18 97 1.6 4.8 0.00 0.00 0.00 34 1002.1
20260904052006 18 97 4.8 9.7 0.00 0.00 0.00 33 1002.1
20260904051505 18 97 4.8 11.3 0.00 0.00 0.00 33 1002.1
20260904051005 19 108 4.8 16.1 0.00 0.00 0.00 32 1002.2
20260904045505 18 118 12.9 19.3 0.00 0.00 0.00 32 1002.3
20260904045005 19 120 12.9 19.3 0.00 0.00 0.00 32 1002.4
20260904044505 19 195 8.0 11.3 0.00 0.00 0.00 32 1002.2
20260904044005 19 211 4.8 9.7 0.00 0.00 0.00 31 1002.2
20260904043005 19 240 8.0 12.9 0.00 0.00 0.00 31 1002.2
20260904042005 19 192 8.0 9.7 0.00 0.00 0.00 32 1002.5
20260904041505 19 206 4.8 8.0 0.00 0.00 0.00 31 1002.4
20260904040006 20 224 4.8 8.0 0.00 0.00 0.00 30 1002.3
20260904035504 20 233 4.8 9.7 0.00 0.00 0.00 29 1002.3
20260904035006 20 235 8.0 9.7 0.00 0.00 0.00 28 1002.4
20260904033505 20 222 4.8 8.0 0.00 0.00 0.00 29 1002.7
20260904033006 20 216 4.8 8.0 0.00 0.00 0.00 29 1002.7
20260904032505 20 207 4.8 4.8 0.00 0.00 0.00 28 1002.7
20260904031505 20 200 3.2 9.7 0.00 0.00 0.00 28 1002.7
20260904031005 20 197 3.2 8.0 0.00 0.00 0.00 28 1002.7
20260904030005 20 197 3.2 4.8 0.00 0.00 0.00 28 1002.8
20260904025505 20 197 4.8 9.7 0.00 0.00 0.00 28 1002.8
20260904025005 20 195 6.4 9.7 0.00 0.00 0.00 28 1002.8
20260904024505 21 187 8.0 9.7 0.00 0.00 0.00 28 1002.8
20260904023005 21 197 8.0 11.3 0.00 0.00 0.00 27 1002.7
20260904022505 21 199 8.0 11.3 0.00 0.00 0.00 26 1002.6
20260904022005 21 207 3.2 4.8 0.00 0.00 0.00 26 1002.6
20260904021506 22 203 3.2 11.3 0.00 0.00 0.00 25 1002.6
20260904021005 22 198 4.8 11.3 0.00 0.00 0.00 25 1002.6
20260904020005 22 196 9.7 11.3 0.00 0.00 0.00 24 1002.5
20260904015505 22 226 4.8 9.7 0.00 0.00 0.00 24 1002.4
20260904015005 22 228 8.0 11.3 0.00 0.00 0.00 23 1002.3
20260904014505 22 197 6.4 14.5 0.00 0.00 0.00 24 1002.3
20260904014005 23 217 4.8 14.5 0.00 0.00 0.00 23 1002.3
20260904013505 23 202 6.4 19.3 0.00 0.00 0.00 23 1002.2
20260904012505 23 234 9.7 16.1 0.00 0.00 0.00 22 1002.1
20260904012005 23 233 11.3 22.5 0.00 0.00 0.00 22 1002.0
20260904011504 23 230 11.3 25.7 0.00 0.00 0.00 22 1001.9
20260904011005 23 236 11.3 25.7 0.00 0.00 0.00 22 1001.9
20260904005505 24 231 14.5 20.9 0.00 0.00 0.00 20 1001.8
20260904005005 24 226 14.5 20.9 0.00 0.00 0.00 20 1001.7
20260904004504 24 229 9.7 20.9 0.00 0.00 0.00 20 1001.7
20260904004005 24 230 14.5 20.9 0.00 0.00 0.00 20 1001.6
20260904003505 25 233 14.5 22.5 0.00 0.00 0.00 20 1001.5
20260904003005 25 225 12.9 22.5 0.00 0.00 0.00 20 1001.5
20260904002505 25 233 11.3 20.9 0.00 0.00 0.00 19 1001.5
20260904001005 25 225 12.9 25.7 0.00 0.00 0.00 20 1001.4
20260904000005 25 238 11.3 24.1 0.00 0.00 0.00 21 1001.4
20260903235505 25 241 16.1 24.1 0.00 0.00 0.00 21 1001.4
20260903235005 25 229 16.1 24.1 0.00 0.00 0.00 21 1001.4
20260903234505 25 236 16.1 24.1 0.00 0.00 0.00 20 1001.3
20260903234005 25 230 14.5 24.1 0.00 0.00 0.00 21 1001.3
20260903233505 25 231 16.1 32.2 0.00 0.00 0.00 21 1001.3
20260903233005 25 229 14.5 32.2 0.00 0.00 0.00 21 1001.2
20260903232505 25 197 16.1 24.1 0.00 0.00 0.00 21 1001.2
20260903232005 25 233 11.3 32.2 0.00 0.00 0.00 22 1001.2
20260903231505 25 208 11.3 32.2 0.00 0.00 0.00 21 1001.3
20260903231005 25 211 20.9 32.2 0.00 0.00 0.00 21 1001.2
20260903230005 25 205 16.1 27.4 0.00 0.00 0.00 21 1001.2
20260903225505 25 226 14.5 25.7 0.00 0.00 0.00 21 1001.2
20260903225005 25 233 16.1 25.7 0.00 0.00 0.00 21 1001.2
20260903224505 25 210 16.1 37.0 0.00 0.00 0.00 21 1001.3
20260903223505 25 237 14.5 27.4 0.00 0.00 0.00 21 1001.2
20260903223005 25 203 16.1 24.1 0.00 0.00 0.00 21 1001.3
20260903222504 25 213 11.3 24.1 0.00 0.00 0.00 22 1001.3
20260903222005 26 215 12.9 29.0 0.00 0.00 0.00 21 1001.5
20260903221505 26 194 14.5 33.8 0.00 0.00 0.00 20 1001.4
20260903221005 26 181 19.3 35.4 0.00 0.00 0.00 21 1001.3
20260903220004 26 195 19.3 35.4 0.00 0.00 0.00 20 1001.3
20260903214504 25 271 9.7 20.9 0.00 0.00 0.00 24 1001.4
20260903214005 24 330 3.2 19.3 0.00 0.00 0.00 25 1001.2
20260903213505 24 271 6.4 19.3 0.00 0.00 0.00 26 1001.4
20260903213005 23 245 3.2 19.3 0.00 0.00 0.00 26 1001.3
20260903211505 23 262 12.9 20.9 0.00 0.00 0.00 26 1001.4
20260903211005 24 269 11.3 20.9 0.00 0.00 0.00 26 1001.3
20260903210005 25 283 16.1 29.0 0.00 0.00 0.00 24 1001.3
20260903205504 25 246 9.7 29.0 0.00 0.00 0.00 24 1001.3
20260903205005 23 207 4.8 19.3 0.00 0.00 0.00 26 1001.3
20260903204505 23 204 8.0 19.3 0.00 0.00 0.00 26 1001.4
20260903204005 23 253 12.9 19.3 0.00 0.00 0.00 27 1001.5
20260903203504 23 256 9.7 16.1 0.00 0.00 0.00 27 1001.6
20260903203005 22 275 9.7 16.1 0.00 0.00 0.00 27 1001.5
20260903202005 23 282 14.5 19.3 0.00 0.00 0.00 27 1001.5
20260903201504 23 252 8.0 19.3 0.00 0.00 0.00 26 1001.5
20260903201004 23 241 11.3 27.4 0.00 0.00 0.00 26 1001.5
20260903200005 23 253 16.1 24.1 0.00 0.00 0.00 27 1001.5
20260903195504 23 271 6.4 22.5 0.00 0.00 0.00 26 1001.5
20260903195005 23 237 12.9 22.5 0.00 0.00 0.00 25 1001.6
20260903194505 23 226 11.3 19.3 0.00 0.00 0.00 25 1001.4
20260903194005 23 209 3.2 14.5 0.00 0.00 0.00 25 1001.6
20260903193505 23 208 1.6 24.1 0.00 0.00 0.00 25 1001.6
20260903193004 23 212 8.0 24.1 0.00 0.00 0.00 25 1001.6
20260903192505 23 293 16.1 24.1 0.00 0.00 0.00 26 1001.7
20260903192005 23 302 11.3 19.3 0.00 0.00 0.00 26 1001.8
20260903191005 22 272 11.3 22.5 0.00 0.00 0.00 28 1001.9
20260903190005 22 310 4.8 24.1 0.00 0.00 0.00 28 1001.9
20260903185504 22 280 16.1 24.1 0.00 0.00 0.00 28 1001.9
20260903185005 22 218 3.2 16.1 0.00 0.00 0.00 26 1002.0
20260903184005 22 165 8.0 25.7 0.00 0.00 0.00 26 1001.9
20260903183504 23 166 8.0 29.0 0.00 0.00 0.00 26 1002.1
20260903182505 22 311 12.9 24.1 0.00 0.00 0.00 28 1002.0
20260903182005 22 269 16.1 24.1 0.00 0.00 0.00 28 1002.1
20260903181004 21 283 14.5 24.1 0.00 0.00 0.00 28 1002.1
20260903180004 21 295 9.7 19.3 0.00 0.00 0.00 29 1002.2
20260903175505 21 274 9.7 20.9 0.00 0.00 0.00 28 1002.2
20260903175005 21 264 4.8 25.7 0.00 0.00 0.00 29 1002.2
20260903174504 21 277 9.7 25.7 0.00 0.00 0.00 29 1002.2
20260903174005 20 299 14.5 22.5 0.00 0.00 0.00 30 1002.2
20260903173504 20 304 12.9 22.5 0.00 0.00 0.00 30 1002.3
20260903173005 20 299 14.5 20.9 0.00 0.00 0.00 30 1002.4
20260903172504 20 302 16.1 22.5 0.00 0.00 0.00 29 1002.4
20260903172005 20 298 14.5 32.2 0.00 0.00 0.00 29 1002.5
20260903171505 21 284 12.9 32.2 0.00 0.00 0.00 29 1002.5
20260903171005 20 310 14.5 25.7 0.00 0.00 0.00 29 1002.5
20260903170004 20 267 14.5 19.3 0.00 0.00 0.00 30 1002.5
20260903165505 20 291 8.0 20.9 0.00 0.00 0.00 30 1002.5
20260903165004 20 288 14.5 24.1 0.00 0.00 0.00 30 1002.4
20260903164504 20 298 14.5 25.7 0.00 0.00 0.00 30 1002.4
20260903164005 20 294 14.5 25.7 0.00 0.00 0.00 30 1002.5
20260903163505 20 308 14.5 20.9 0.00 0.00 0.00 31 1002.5
20260903163005 20 275 12.9 24.1 0.00 0.00 0.00 30 1002.5
20260903162505 20 284 14.5 24.1 0.00 0.00 0.00 31 1002.4
20260903162005 20 289 11.3 19.3 0.00 0.00 0.00 31 1002.5
20260903161505 19 283 9.7 20.9 0.00 0.00 0.00 30 1002.5
20260903161005 19 278 11.3 24.1 0.00 0.00 0.00 31 1002.5
20260903160005 19 290 12.9 24.1 0.00 0.00 0.00 31 1002.5
20260903155505 19 292 14.5 24.1 0.00 0.00 0.00 31 1002.6
20260903155005 19 270 6.4 24.1 0.00 0.00 0.00 30 1002.6
20260903154504 19 235 6.4 24.1 0.00 0.00 0.00 31 1002.6
20260903153005 18 241 3.2 11.3 0.00 0.00 0.00 33 1002.8
20260903152504 18 240 3.2 14.5 0.00 0.00 0.00 33 1002.8
20260903152005 18 277 6.4 14.5 0.00 0.00 0.00 33 1002.9
20260903151504 18 289 4.8 14.5 0.00 0.00 0.00 34 1003.0
20260903151004 18 295 8.0 19.3 0.00 0.00 0.00 34 1003.1
20260903150004 18 265 14.5 19.3 0.00 0.00 0.00 31 1003.0
20260903145505 18 250 9.7 14.5 0.00 0.00 0.00 30 1003.0
20260903145005 18 226 8.0 14.5 0.00 0.00 0.00 31 1003.1
20260903144504 18 233 9.7 14.5 0.00 0.00 0.00 31 1003.0
20260903144004 18 233 8.0 14.5 0.00 0.00 0.00 31 1003.0
20260903143504 17 219 9.7 19.3 0.00 0.00 0.00 31 1003.0
20260903143005 17 233 9.7 19.3 0.00 0.00 0.00 31 1002.9
20260903142505 17 222 8.0 19.3 0.00 0.00 0.00 31 1002.8
20260903141005 17 207 9.7 14.5 0.00 0.00 0.00 32 1002.8